Regional Weather Roundup
Issued by NWS Wakefield, VA

Home | Current Version | Previous Version | Text Only | Print | Product List | Glossary Off
Versions: 1 2 3 4 5 6 7 8 9 10 11 12 13 14 15 16 17 18 19 20 21 22 23 24 25 26 27 28 29 30 31 32 33 34 35 36 37 38 39 40 41 42 43 44 45 46 47 48 49 50

000
ASUS41 KAKQ 270014
RWRAKQ

REGIONAL WEATHER ROUNDUP
NATIONAL WEATHER SERVICE WAKEFIELD VA
800 PM EDT SUN APR 26 2015

Note: "fair" indicates few or no clouds below 12,000 feet with no
significant weather and/or obstructions to visibility. * = Denotes
station may not report precipitation (e.g., rain,snow,etc.),
thunder or fog.

VAZ042-051-052>054-056-270100-
NORTHERN VIRGINIA

CITY           SKY/WX    TMP DP  RH WIND       PRES   REMARKS
WASH NATIONAL  MOCLDY    61  35  37 N10       29.70R
DULLES         PTCLDY    59  28  30 N8        29.70R
FORT BELVOIR   CLEAR     59  31  35 CALM      29.69R
QUANTICO       CLEAR     59  31  34 NW5       29.71R
FREDERICKSBRG* CLEAR     59  36  41 CALM      29.70R
STAFFORD*      CLEAR     55  34  45 CALM      29.74S
WARRENTON      CLEAR     52  42  69 CALM      29.69S
CULPEPER*      CLEAR     55  37  50 CALM      29.70S
MANASSAS*      CLEAR     59  30  33 N6        29.70R
LEESBURG*      CLEAR     59  32  36 N3        29.70S
WINCHESTER     CLOUDY    59  27  29 E5        29.70R
FRONT ROYAL*   CLOUDY    55  36  47 CALM      29.68R
LURAY*         MOCLDY    57  41  54 CALM      29.69S
$$

VAZ048-049-060>072-079>083-270100-
CENTRAL AND SOUTH CENTRAL VIRGINIA

CITY           SKY/WX    TMP DP  RH WIND       PRES   REMARKS
RICHMOND       PTCLDY    56  41  57 CALM      29.71R
CHESTERFIELD*  FAIR      54  34  47 CALM      29.73R
PETERSBURG*    MOCLDY    53  46  77 SW3       29.73R
HANOVER        PTCLDY    53  44  71 CALM      29.72R
TAPPAHANNOCK*  PTCLDY    53  40  60 CALM      29.71R
QUINTON*       FAIR      54  42  66 CALM      29.71R
CHARLOTTSVILLE PTCLDY    56  36  47 SW3       29.70R
GORDONSVILLE*  FAIR      52  42  67 CALM      29.70R
ORANGE*        CLEAR     55  39  54 CALM      29.72R
LOUISA*        PTCLDY    52  46  82 CALM      29.70R
BUMPASS*       FAIR      53  44  70 MISG      29.71R
FARMVILLE*     PTCLDY    54  42  65 CALM      29.71S
CREWE*         FAIR      52  45  77 CALM      29.72R
FORT PICKETT*  FAIR      52  46  79 SW5       29.72R
CHASE CITY*    CLOUDY    53  50  90 CALM      29.74R
CLARKSVILLE*   CLOUDY    52  43  71 CALM      29.73R
SOUTH HILL*    CLOUDY    51  47  85 CALM      29.78R
LAWRENCEVILLE* FAIR      52  47  83 CALM      29.72R
EMPORIA*       CLOUDY    50  46  87 CALM      29.74R
$$

VAZ088>098-270100-
SOUTHEAST VIRGINIA

CITY           SKY/WX    TMP DP  RH WIND       PRES   REMARKS
NORFOLK        PTCLDY    54  39  57 NE7       29.71S
VIRGINIA BEACH MOCLDY    53  41  63 NE5       29.71R
NORFOLK NAVAL  MOCLDY    57  39  51 E5        29.73R
WEST POINT*    PTCLDY    56  41  57 CALM      29.72S
SALUDA*        FAIR      51  44  77 CALM      29.71R
NEWPORT NEWS   MOCLDY    55  43  63 CALM      29.71S
LANGLEY AFB    MOCLDY    53  39  57 E5        29.70S
FORT EUSTIS    CLOUDY    56  40  54 SE3       29.70R
WILLIAMSBURG*  MOCLDY    55  46  71 CALM      29.72S
HR EXEC AP*    FAIR      48  43  81 CALM      29.73R
FRANKLIN*      MOCLDY    52  42  68 CALM      29.72S
WAKEFIELD      CLOUDY    52  46  80 CALM      29.72R
$$

VAZ020-022-025-037-045-270100-
WEST CENTRAL AND SOUTHWEST VIRGINIA

CITY           SKY/WX    TMP DP  RH WIND       PRES   REMARKS
STAUNTON*      PTCLDY    53  38  56 CALM      29.73R
WAYNESBORO*    FAIR      53  36  53 W5        29.71S
HOT SPRINGS VA MOCLDY    43  43 100 W6        29.71R
LYNCHBURG      CLOUDY    50  43  77 CALM      29.75R
DANVILLE       CLOUDY    52  43  71 NW3       29.76R
SOUTH BOSTON*  CLOUDY    52  44  75 W3        29.74S
MARTINSVILLE   CLOUDY    50  50 100 CALM      29.78R
ROANOKE        PTCLDY    51  43  74 CALM      29.76R
BLACKSBURG     CLOUDY    47  42  82 W5        29.78R
DUBLIN*        CLOUDY    49  44  81 CALM      29.78R
MARION*        CLOUDY    47  40  76 W5        29.82R
HILLSVILLE*    CLOUDY    46  44  93 N7G18     29.77R
RICHLANDS*     FAIR      44  37  74 SE3       29.80R
WISE*          MOCLDY    50  37  62 CALM      29.81R
ABINGDON*      CLOUDY    51  39  64 N5        29.81R
$$

MDZ021>025-VAZ099-100-270100-
SOUTHERN MARYLAND AND THE DELMARVA PENINSULA

CITY           SKY/WX    TMP DP  RH WIND       PRES   REMARKS
PATUXENT RIVER CLEAR     52  37  56 CALM      29.70R
BAY BRIDGE APT   N/A    N/A N/A N/A CALM      29.70R
LEONARDTOWN    CLEAR     52  36  54 CALM      29.72R
DOVER          PTCLDY    48  36  64 SE7       29.67R
GEORGETOWN     PTCLDY    49  35  58 SE8       29.72R
EASTON         PTCLDY    57  36  44 CALM      29.73R
CAMBRIDGE      CLEAR     55  36  47 CALM      29.69R
SALISBURY      CLEAR     50  35  56 SE5       29.71R
OCEAN CITY     CLEAR     47  40  76 E3        29.72R
WALLOPS ISLAND CLEAR     50  43  77 E7        29.71R
ACCOMACK*      CLEAR     52  37  58 SE5       29.71R
$$

NCZ012>017-030>032-270100-
NORTH CENTRAL AND EASTERN NORTH CAROLINA

CITY           SKY/WX    TMP DP  RH WIND       PRES   REMARKS
ROANOKE RAPIDS FAIR      52  46  82 CALM      29.73R
RALEIGH        MOCLDY    52  45  77 N5        29.75R
ELIZABETH CITY PTCLDY    54  38  54 NE7       29.72R
AHOSKIE*         N/A     51  48  90 CALM      29.73R
EDENTON*       PTCLDY    53  46  77 CALM      29.73R
CURRITUCK*     PTCLDY    55  40  58 N5        29.72R
KILL DEVIL HLS PTCLDY    51  35  55 N8        29.70S
MANTEO         PTCLDY    51  34  52 N12       29.71F
CAPE HATTERAS  PTCLDY    50  39  66 N9        29.70R
TARBORO*       FAIR      52  47  83 CALM      29.74S
GOLDSBORO      CLOUDY    52  48  87 N1        29.72R
WASHINGTON       N/A     51  46  84 N3        29.72S
GREENVILLE     PTCLDY    52  46  82 CALM      29.76R
NEW BERN       LGT RAIN  53  47  79 N10       29.73R
WILMINGTON     CLOUDY    55  48  77 NE14      29.70R
$$

VAZ048-270100-
ELSEWHERE

CITY           SKY/WX    TMP DP  RH WIND       PRES   REMARKS
HARRISBURG PA  PTCLDY    57  27  31 N7        29.70R
BALTIMORE      PTCLDY    58  27  30 N3        29.70R
ANNAPOLIS      CLEAR     56  40  55 CALM      29.69R
ANDREWS AFB    PTCLDY    55  33  44 NE6       29.69R
PHILADELPHIA   MOCLDY    60  27  28 N5        29.68R
HENDERSON NC   CLOUDY    51  44  75 CALM      29.74R
GREENSBORO     PTCLDY    51  43  74 NE6       29.75R
ROCKY MOUNT    MOCLDY    53  46  77 N5        29.74R
$$

VAZ100-270100-
MARINE

STATION/POSITION TIME  TEMP    WIND        PRES    WAVE   SWELL
                       AIR SEA DIR/SP/G            HT/PER HT/PER
                 (UTC) (F)     (DEG/KT/KT) (MB)    (FT/S) (FT/S)
BRANDYWINE LGT   2300   50 52  150/ 11/ 11 1005.5R
CAPE MAY NJ      2300   51 55  110/ 10/ 12 1005.0S
LEWES DE         2312   50 54  130/  5/  7 1005.4R
15NM E FENWICK I 2350   48 48              1005.8R   2/11
OCEAN-CITY-INLET 2312   50 51  100/  5/  6 1005.5R
WACHAPREAGUE VA  2300   54 59  100/  6/  7 1005.7R
THOMAS POINT MD  0000   57 54  220/  4/  4 1006.4R
GOOSES REEF MD   0000   55 55  270/  2/  2   N/A     1/ 2
COVE POINT MD    2300   57     340/  2/  3 1006.0R
SOLOMONS ISLAND  2300      56                N/A
BISHOPS HEAD MD  2300   58 60  310/  7/ 11 1004.7R
PINEY POINT MD   2300          170/  3/  4   N/A
CAMBRIDGE MD     2300   61 58  310/  5/  9 1004.8R
LEWISETTA VA     2300   59 57              1005.2R
RAPPAHANNOCK LGT 2300          170/  3/  4 1006.1R
YORK RVR RNG VA  2300   57      40/  5/  6 1005.3R
YORKTOWN VA      2300   58 60   40/  6/  8 1005.5R
JAMESTOWN VA     0000   57 63   90/  2/  2 1005.2R
DOMINION TERM VA 2300   58      30/  5/  9 1006.0R
KIPTOPEKE VA     2300      62  350/  7/  8   N/A
CHES BAY BRIDGE  2312   55 57  360/  7/  8 1005.7R
CAPE HENRY VA    2300   54      60/  5/  7 1004.8R
CHESAPEAKE LGHT  2300   51      30/  8/  8 1006.6R
WILLOUBY STN VA  2300   55      30/  6/  7 1006.6R
S CRANEY ISL VA  2300           40/  8/  9 1005.9R
CAPE HENRY BUOY  2328      51                N/A     3/ 6
OFFSHORE WE BUOY 2311      51                N/A     4/ 6   3/ 6
64NM E OF VA BCH 2350   56 56   20/ 17/ 19 1004.7R   5/ 5   2/11
DUCK PIER NC     2300   53 54   10/ 12/ 15 1004.4R
44056 DUCK FRF   2311      54                N/A     4/ 6
OREGON INLET NC  2300   52 55  350/ 10/ 15 1005.6R
HATTERAS NC      2312   54 62   10/ 19/ 22 1004.6R
DIAMOND SHLS NC  2350   57 78  360/ 21/ 25 1004.6R   7/10   2/15
CAPE LOOKOUT NC  0000   54     360/ 14/ 16 1005.5R
$$


USA.gov is the U.S. government's official web portal to all federal, state and local government web resources and services.